Wind_Speed
15 16 16 16 16 16 16 15 16 17 15 16 15 17 17 17 19 24 27 22 21 14 17 12 10 12 13 13 11 8 11 12 12 13 12 6 11 4 5 10 8 9 9 5 7
16 17 17 18 18 18 17 15 17 16 16 15 16 17 18 18 21 28 29 20 17 23 23 17 16 15 15 16 12 13 12 16 8 12 14 19 11 15 7 9 12 11 9 11 9
19 19 19 19 18 19 19 17 17 17 16 15 15 15 14 15 16 15 18 12 21 24 21 21 16 18 18 15 16 15 15 14 15 16 19 21 15 12 13 13 11 11 12 12 11
21 21 21 21 21 20 19 18 18 19 18 17 16 15 14 11 7 6 7 9 19 25 21 23 21 22 19 17 18 15 18 19 18 14 13 9 8 10 14 14 3 7 7 13 15
22 22 23 24 24 23 23 21 20 19 19 18 17 15 13 11 21 7 10 7 2 14 28 27 25 26 19 19 17 15 18 16 16 14 10 5 10 9 12 10 10 9 11 15 15
23 22 23 23 23 24 24 24 22 21 19 19 18 15 13 20 17 14 24 27 19 14 24 29 27 26 18 21 16 15 12 15 14 13 7 8 5 4 9 4 11 12 14 15 15
21 21 21 22 23 22 22 22 23 22 21 20 20 17 18 32 12 10 5 7 14 20 18 31 28 22 22 13 18 14 15 14 14 12 6 6 10 9 10 6 11 15 14 15 15
22 20 21 22 23 23 22 20 20 22 22 21 19 17 18 19 23 30 26 20 8 16 17 18 26 21 15 10 10 13 14 15 12 9 6 6 9 9 10 10 15 16 17 16 16
21 20 21 22 18 21 23 20 19 19 21 19 16 12 18 15 26 28 25 24 21 18 12 11 24 23 17 15 15 16 15 18 10 11 5 11 13 8 11 12 16 16 18 18 17
21 20 21 23 19 18 21 19 17 16 16 11 9 7 20 13 13 13 15 21 13 19 14 17 18 17 18 16 16 16 13 12 13 9 9 12 14 14 17 17 16 17 18 20 19
22 22 20 20 22 17 16 9 5 6 13 17 11 21 2 8 15 10 11 18 19 24 17 25 19 22 27 22 17 14 12 14 12 7 10 16 15 15 18 21 16 17 19 21 20
18 19 20 19 20 17 10 5 5 6 12 23 33 26 23 6 7 18 16 18 24 22 22 16 23 25 22 19 17 15 17 17 11 10 9 15 17 19 17 17 16 16 18 20 19
19 17 18 17 17 15 8 6 7 4 9 18 30 35 35 24 16 18 24 26 23 26 27 23 21 22 20 16 18 19 18 15 12 12 12 16 18 12 9 10 13 13 15 18 22
18 15 14 15 15 9 6 8 7 3 7 11 12 16 36 28 20 32 27 26 20 27 27 22 21 20 18 23 21 20 16 15 14 12 12 4 14 14 10 11 11 13 14 17 21
17 14 12 13 6 4 3 4 3 4 7 5 14 7 22 36 10 33 29 28 20 19 25 25 23 23 22 22 20 17 13 13 15 12 12 16 8 10 6 9 7 6 13 15 20
17 14 11 18 18 13 8 6 3 7 13 9 12 17 19 33 20 15 36 25 23 20 21 23 19 19 20 15 13 15 8 10 8 11 12 15 10 9 3 4 5 5 1 11 18
17 16 13 16 15 11 11 8 8 14 7 12 12 18 24 18 27 18 30 30 19 22 22 25 20 19 18 18 13 17 13 9 10 9 11 2 6 10 10 8 9 9 6 9 19
15 18 17 17 18 9 8 11 17 22 28 8 14 20 23 19 24 25 24 28 29 25 18 22 24 25 18 19 17 20 18 11 10 11 10 6 6 4 2 6 7 6 5 10 21
14 18 18 17 18 21 15 16 19 26 16 27 10 20 18 21 12 24 27 30 33 29 19 23 24 28 23 21 20 14 16 17 15 13 8 11 5 11 7 7 4 3 6 14 22
13 15 20 18 19 23 9 31 21 19 6 18 30 19 23 24 16 24 24 22 32 33 25 11 18 15 23 21 22 20 16 10 10 14 13 8 7 7 3 5 4 6 9 16 22
13 8 10 19 21 14 12 31 28 29 8 10 20 28 23 21 24 27 18 13 33 34 27 15 12 22 17 22 22 13 16 14 13 13 12 9 6 5 4 3 3 7 13 19 23
13 5 9 25 12 4 10 32 39 21 24 22 11 19 23 21 23 24 24 23 27 29 35 30 13 14 23 21 22 22 22 21 11 16 10 10 10 3 5 1 3 9 16 22 24
6 9 7 26 9 12 13 27 28 24 17 14 17 11 20 21 17 25 19 14 20 28 27 25 15 15 15 11 15 23 21 21 20 15 16 12 9 6 5 6 4 12 18 21 25
4 3 8 18 13 18 24 19 20 23 22 23 19 19 18 19 17 13 20 18 19 28 24 25 18 27 22 21 19 21 21 23 22 16 16 17 16 9 8 9 8 11 16 22 27
6 4 4 4 6 11 9 10 12 19 24 23 13 19 12 15 22 16 17 17 16 27 23 20 25 25 25 21 24 21 23 24 24 23 19 16 17 15 10 9 9 12 17 20 27
4 3 3 3 3 16 14 16 21 17 18 25 22 23 5 11 10 22 14 16 21 19 25 21 15 21 21 26 20 22 24 24 25 25 22 19 17 11 13 7 9 14 20 23 29
9 12 4 1 3 2 3 9 18 15 22 26 26 15 17 6 10 10 9 3 0 18 22 22 17 15 21 20 21 22 26 25 23 25 22 22 19 15 11 12 14 16 20 24 27
Wind_Direction
276 272 270 275 273 270 272 276 280 285 290 293 298 295 289 283 279 274 265 243 232 222 205 179 187 194 196 219 224 241 259 259 267 278 291 291 280 215 256 242 225 217 249 244 220
277 275 276 275 275 275 276 276 274 274 273 278 285 290 292 290 282 272 266 265 242 227 218 205 202 196 200 218 212 226 249 261 283 291 286 292 278 291 230 225 232 235 233 241 239
277 275 271 269 270 273 278 283 283 284 287 288 285 289 294 298 298 268 273 244 215 225 212 211 210 202 221 218 212 225 252 276 273 274 292 288 285 264 254 262 252 247 229 218 209
277 275 276 277 276 276 279 279 277 278 278 283 281 285 288 289 262 286 243 207 211 198 201 203 202 204 218 213 224 240 249 261 271 291 291 277 268 249 244 269 312 235 229 207 209
284 280 276 275 277 278 277 275 276 277 280 282 282 287 285 267 246 245 192 177 161 206 198 203 204 207 217 217 229 229 263 261 270 271 255 257 245 270 268 283 246 236 213 213 212
284 283 280 276 272 270 270 270 270 272 273 277 279 278 277 255 257 257 243 249 248 214 208 204 213 215 231 232 233 246 260 271 263 253 218 236 237 246 292 253 235 224 221 217 210
293 285 283 280 275 273 272 271 272 270 268 268 269 274 260 244 253 241 232 241 228 216 218 212 211 207 221 223 235 252 257 244 237 223 229 240 245 255 286 232 240 233 226 216 209
304 296 291 284 285 282 280 278 274 267 265 263 266 273 255 257 259 251 250 246 238 204 211 213 208 215 222 206 205 230 238 252 194 203 172 219 272 266 288 229 237 232 226 214 209
296 302 303 301 294 289 285 285 284 276 263 262 268 235 261 257 243 250 237 228 232 219 221 203 199 211 211 227 237 228 249 232 239 200 195 216 279 286 296 261 262 243 227 218 209
285 295 301 308 304 293 284 292 293 282 259 249 227 235 245 235 228 226 220 209 201 194 189 193 190 199 218 214 229 231 224 244 257 191 228 256 259 272 278 261 261 255 235 222 212
278 280 290 296 301 299 288 311 276 233 219 214 210 217 109 220 227 212 196 189 195 187 188 192 203 206 209 218 237 264 256 256 255 272 263 276 286 287 283 276 259 257 230 221 213
285 276 276 286 297 296 297 276 234 271 291 248 245 241 240 271 236 215 194 182 190 198 199 188 216 212 220 217 229 232 242 249 254 267 281 288 285 293 291 271 264 248 227 217 206
297 287 272 277 289 300 264 242 237 291 259 261 235 232 227 223 229 209 193 203 194 202 200 204 215 217 215 215 217 229 240 248 259 293 270 264 274 291 288 248 250 244 232 214 205
297 296 282 272 294 258 261 206 232 264 273 247 205 240 213 213 233 221 203 195 209 209 207 218 219 193 200 218 216 233 222 257 258 268 281 346 293 294 273 268 234 232 222 212 201
281 285 274 244 263 253 202 199 246 176 269 166 180 179 190 187 167 205 196 202 213 207 201 209 209 193 207 215 213 241 236 233 254 267 283 266 254 292 266 279 268 244 213 208 198
258 270 259 256 236 234 260 209 174 213 237 196 162 182 173 200 216 167 187 200 212 213 214 223 209 203 213 215 217 225 206 227 245 256 252 258 260 279 283 311 296 268 87 196 189
248 254 241 253 232 244 247 207 199 225 168 188 181 178 180 187 205 179 188 194 190 194 203 213 195 209 213 208 205 220 211 225 220 220 250 152 251 257 307 299 298 293 301 186 179
257 238 242 231 232 214 223 217 220 225 222 117 190 182 192 172 203 192 191 197 209 201 192 200 208 192 198 204 186 201 207 232 227 244 251 158 256 227 330 311 290 298 295 171 173
248 233 239 225 221 217 230 214 220 220 221 228 193 192 196 190 193 196 207 205 200 199 208 196 208 196 203 209 215 185 219 226 255 268 272 274 208 254 255 248 223 214 148 162 169
223 229 234 217 209 212 221 235 229 232 272 223 226 204 198 192 201 193 194 212 206 210 213 192 208 189 196 207 211 221 202 202 224 242 239 240 237 260 255 12 97 174 157 165 168
189 217 223 205 194 205 214 225 236 262 307 287 239 231 225 192 205 194 201 193 202 197 208 183 203 193 189 204 201 189 222 214 251 225 232 246 257 93 280 20 3 160 165 168 173
188 215 207 187 191 214 230 226 238 279 312 268 298 268 235 228 202 201 218 205 194 191 199 202 199 179 210 198 218 201 213 206 221 213 244 275 263 120 262 273 264 166 170 175 173
200 214 219 196 204 218 244 243 250 248 273 308 275 260 251 234 228 217 211 201 190 192 197 193 211 207 195 192 215 224 212 218 217 246 242 227 233 149 175 203 199 174 171 176 174
178 205 208 209 246 241 232 246 252 252 256 272 268 293 268 241 227 217 214 196 197 192 187 193 201 208 208 201 194 208 223 215 216 222 232 237 252 228 211 217 181 184 177 175 178
216 224 244 194 236 254 250 240 258 242 236 259 287 243 282 237 220 226 210 183 203 192 188 189 209 209 224 215 201 208 214 214 218 219 231 232 235 236 239 210 211 190 181 178 179
195 231 224 223 259 216 224 241 252 249 243 244 246 273 272 261 278 217 207 195 190 187 193 191 213 217 213 221 210 215 218 212 217 222 228 238 250 217 240 242 187 185 183 187 186
225 252 253 209 190 209 297 248 254 256 238 252 241 259 264 294 316 316 315 305 155 191 190 192 207 206 219 215 221 226 216 214 219 224 226 229 232 243 224 230 206 193 193 192 194
Height
1533 1532 1530 1527 1528 1528 1528 1527 1526 1525 1524 1524 1521 1521 1519 1517 1515 1516 1511 1513 1518 1521 1520 1524 1527 1530 1531 1532 1532 1531 1527 1519 1514 1515 1509 1510 1514 1515 1516 1515 1519 1520 1520 1521 1521
1529 1528 1526 1526 1526 1524 1525 1525 1524 1523 1522 1519 1518 1519 1517 1512 1512 1507 1507 1511 1512 1514 1518 1521 1525 1528 1527 1527 1528 1526 1520 1514 1511 1511 1510 1507 1509 1510 1515 1514 1516 1519 1519 1519 1519
1526 1525 1525 1525 1523 1522 1522 1521 1519 1519 1518 1518 1517 1516 1512 1511 1510 1501 1501 1502 1503 1507 1513 1518 1521 1523 1522 1521 1521 1519 1518 1512 1511 1510 1508 1506 1505 1509 1509 1505 1508 1511 1513 1517 1517
1521 1520 1519 1518 1518 1518 1515 1514 1515 1516 1516 1514 1512 1511 1508 1511 1506 1497 1497 1498 1498 1500 1510 1513 1515 1517 1514 1514 1516 1517 1514 1513 1510 1509 1508 1506 1505 1506 1507 1504 1508 1508 1510 1513 1513
1513 1512 1512 1512 1510 1510 1512 1512 1512 1511 1509 1507 1508 1506 1506 1506 1499 1501 1499 1497 1497 1500 1502 1507 1509 1510 1508 1508 1509 1511 1509 1508 1508 1507 1506 1506 1505 1504 1502 1504 1507 1506 1506 1508 1510
1509 1509 1507 1507 1508 1509 1509 1506 1505 1504 1503 1502 1502 1504 1503 1500 1495 1494 1493 1494 1495 1498 1500 1502 1502 1505 1503 1503 1503 1505 1505 1504 1504 1503 1504 1503 1500 1505 1498 1500 1504 1504 1503 1505 1508
1506 1505 1504 1504 1504 1503 1501 1500 1498 1497 1496 1498 1499 1499 1496 1485 1490 1490 1490 1491 1491 1494 1496 1497 1500 1500 1502 1501 1502 1503 1504 1500 1500 1499 1498 1501 1499 1499 1496 1498 1500 1501 1500 1501 1504
1501 1499 1498 1497 1496 1495 1494 1493 1493 1492 1492 1494 1495 1494 1486 1481 1484 1483 1486 1489 1488 1490 1493 1495 1498 1499 1496 1496 1499 1498 1496 1497 1485 1497 1498 1500 1500 1493 1493 1495 1494 1494 1496 1498 1501
1496 1494 1493 1491 1491 1489 1488 1488 1488 1488 1488 1490 1491 1492 1480 1473 1472 1474 1478 1480 1484 1487 1490 1491 1494 1494 1497 1494 1494 1488 1497 1487 1486 1489 1489 1494 1490 1485 1489 1491 1489 1489 1491 1494 1497
1490 1490 1489 1487 1485 1484 1483 1483 1482 1483 1482 1484 1486 1492 1473 1466 1466 1467 1470 1475 1479 1482 1487 1488 1487 1487 1485 1485 1492 1488 1489 1483 1490 1484 1488 1485 1484 1482 1484 1482 1484 1484 1486 1489 1492
1485 1485 1485 1484 1482 1480 1480 1481 1483 1481 1475 1470 1468 1463 1460 1462 1463 1464 1465 1469 1474 1476 1473 1477 1477 1474 1471 1474 1475 1476 1483 1485 1480 1481 1486 1482 1477 1477 1477 1476 1475 1477 1480 1484 1488
1480 1480 1480 1479 1478 1476 1476 1479 1477 1476 1469 1462 1460 1460 1460 1461 1459 1459 1462 1465 1465 1463 1466 1471 1467 1461 1467 1470 1477 1481 1482 1482 1477 1481 1484 1479 1475 1471 1470 1467 1468 1470 1474 1479 1484
1476 1475 1475 1475 1474 1474 1475 1478 1475 1476 1471 1448 1445 1445 1452 1458 1453 1451 1454 1456 1455 1457 1455 1455 1454 1461 1463 1469 1478 1477 1478 1478 1482 1478 1479 1476 1474 1462 1462 1462 1463 1467 1469 1473 1478
1471 1471 1472 1471 1474 1471 1472 1474 1475 1476 1461 1429 1433 1425 1436 1449 1445 1445 1446 1449 1448 1444 1446 1450 1448 1453 1464 1467 1470 1474 1470 1476 1478 1483 1486 1473 1484 1463 1456 1454 1454 1460 1464 1467 1473
1467 1468 1469 1469 1470 1472 1472 1471 1474 1477 1455 1400 1414 1419 1419 1426 1421 1425 1438 1443 1438 1438 1442 1441 1442 1453 1458 1458 1461 1467 1464 1472 1474 1478 1479 1474 1477 1460 1449 1455 1449 1449 1455 1462 1468
1463 1464 1465 1465 1466 1470 1471 1471 1474 1467 1434 1402 1405 1408 1413 1421 1417 1416 1428 1438 1440 1437 1436 1437 1441 1447 1450 1454 1458 1463 1470 1473 1475 1475 1486 1466 1467 1459 1450 1450 1446 1446 1452 1458 1465
1457 1459 1461 1462 1463 1468 1469 1471 1461 1433 1390 1393 1397 1400 1401 1408 1413 1415 1419 1424 1423 1437 1437 1438 1436 1441 1446 1452 1458 1461 1469 1480 1484 1480 1480 1462 1470 1456 1445 1444 1444 1445 1448 1456 1462
1451 1453 1454 1457 1461 1463 1467 1464 1431 1385 1388 1379 1383 1392 1394 1396 1402 1404 1411 1415 1415 1414 1419 1432 1443 1434 1437 1441 1451 1455 1457 1464 1484 1478 1465 1462 1470 1449 1440 1443 1446 1448 1449 1454 1460
1444 1447 1448 1450 1454 1460 1463 1442 1387 1383 1378 1384 1386 1388 1388 1386 1387 1397 1396 1397 1400 1400 1406 1418 1423 1419 1430 1436 1438 1446 1456 1448 1459 1454 1469 1455 1448 1442 1439 1438 1441 1446 1450 1454 1459
1438 1442 1441 1446 1449 1454 1454 1418 1390 1384 1382 1377 1383 1376 1380 1381 1387 1385 1389 1382 1391 1396 1399 1405 1424 1419 1427 1434 1433 1433 1443 1461 1456 1474 1476 1456 1455 1448 1439 1436 1439 1444 1449 1455 1458
1433 1436 1434 1439 1444 1446 1432 1406 1405 1390 1391 1389 1378 1372 1365 1370 1374 1375 1368 1371 1378 1388 1398 1400 1410 1419 1423 1426 1428 1435 1440 1442 1441 1443 1459 1466 1450 1431 1435 1435 1436 1439 1447 1453 1457
1429 1430 1428 1432 1438 1436 1428 1407 1412 1400 1400 1392 1387 1372 1363 1360 1366 1366 1366 1366 1369 1378 1389 1390 1408 1419 1418 1414 1416 1420 1429 1435 1445 1454 1449 1447 1443 1427 1431 1433 1436 1438 1444 1448 1453
1424 1426 1427 1428 1424 1426 1416 1412 1412 1407 1410 1400 1389 1377 1366 1362 1367 1359 1362 1365 1368 1372 1382 1392 1402 1420 1419 1422 1416 1417 1420 1424 1431 1435 1441 1448 1443 1425 1431 1434 1436 1437 1441 1447 1451
1423 1423 1424 1423 1421 1414 1410 1409 1413 1407 1408 1412 1401 1392 1381 1364 1357 1355 1359 1361 1365 1368 1377 1386 1392 1395 1397 1404 1412 1422 1417 1417 1424 1435 1438 1434 1430 1422 1426 1428 1433 1436 1440 1444 1449
1421 1419 1418 1414 1419 1416 1413 1411 1406 1407 1407 1404 1393 1386 1374 1367 1360 1359 1357 1360 1365 1366 1376 1380 1388 1389 1389 1390 1398 1406 1410 1412 1419 1421 1429 1424 1423 1420 1418 1421 1425 1433 1438 1443 1446
1419 1419 1418 1416 1415 1412 1412 1405 1401 1401 1407 1394 1395 1388 1379 1373 1362 1358 1354 1357 1356 1360 1368 1375 1381 1382 1389 1387 1390 1400 1401 1404 1409 1411 1415 1416 1418 1412 1416 1417 1424 1430 1434 1438 1441
1416 1416 1417 1411 1413 1411 1410 1404 1397 1397 1397 1391 1390 1386 1383 1376 1379 1373 1369 1365 1357 1357 1361 1371 1376 1383 1391 1386 1392 1401 1388 1395 1400 1401 1406 1414 1411 1409 1412 1418 1421 1426 1430 1433 1436